DELTA 1 R/B, 862

Orbit data source: Space-Track

DELTA 1 R/B, 862 is space debris in HEO originally from a launch on Wed, 19 Aug 1964 UTC launched from the Air Force Eastern Test Range (AFETR). Debris objects in space refer to the collection of defunct objects orbiting the Earth. Examples of debris include non-operational satellites, rocket bodies, and fragments generated from explosions, collisions, or faulty payload assembly.

Loading next visibility...
Identifier
862, 1964-047B
Orbit
HEO
Country
Flag of USUS
Related business
Manufacturer
ABL
Mission
Spacecraft
Bus & Motor
ALTAIR, Unknown motor
Mass
~38 kg wet, ~38 kg dry
Launch date (UTC)
1964-08-19 (62 years ago)
Launch vehicle
Unknown
Launch site
Air Force Eastern Test Range (AFETR)
Object type
Payload
Rocket body
Debris
Shape & HBR
Unknown
Radar Cross Section
Medium (>0.1 m² and <1 m²)

Expand to show TLE details & history
Last TLE update: 19 hours ago

TLE from 19 hours ago
0 DELTA 1 R/B
1 00862U 64047B   26135.71786929 -.00000127  00000-0  00000-0 0  9994
2 00862  16.7737 342.7536 7108840   8.5669 359.1723  2.05108156257496
Epoch: 2026-05-15T17:13Z
TLE epoch observation values (Epoch: 2026-05-15T17:13:43.906Z)
Latitude
0.00057°
Longitude
-149.13776°
Altitude
1,239.131 km
Speed
9.456 km/s
True Right ascension
22h 50m 57s
True Declination
0° 00' 02"
Sunlit
Object was in daylight at epoch
Visualization orbit readout
Latitude
Unknown
Longitude
Unknown
Altitude
Unknown
Speed
Unknown
Apparent Right ascension
Unknown
Apparent Declination
Unknown
Sunlit
N/A
Visualization observer readout
Local Sidereal Time
20:31:57
Azimuth
Unknown
Elevation
Unknown
Doppler factor
Unknown
Orbital elements
Apogee altitude
38,397.076 km
Perigee altitude
1,188.262 km
Semi-major axis
26,170.806 km
Eccentricity
0.71088
Inclination
16.7737°
RAAN
342.7536°
Arg. of periapsis
8.5669°
True anomaly
353.04993°
Mean anomaly
359.1723°
Eccentric anomaly
357.14006°
Mean motion
0.51265 °/min
Orbital period
702.24 mins
BSTAR
0
Loading maneuver chart data...
Computing Atmospheric mass density...
Loading historical data...
Loading historical data...
Loading historical data...
Loading historical data...
Loading historical data...
Loading historical data...
Loading historical data...
Other satellites on launch #47 in the year 1964 (1964-08-19 UTC)

Documentation

Showing up to 5 results
|